Simultaneous Nadir Overpasses (SNOs) Predictions

Prediction of SNOs near US between AQUA and NPP Satellite Orbit:

Table of predicted SNOs near US for the next 10.0 days since TLE Epoch: 7/7/2012
Index Date (AQUA) Time (AQUA) AQUA Lat,Lon Date (NPP) Time (NPP) NPP Lat,Lon Distance(km) Time Diff (sec)
1 07/08/2012 06:32:23 39.77, -67.37 07/08/2012 06:30:28 40.11, -69.40 176.98 115
2 07/08/2012 08:08:26 49.89, -88.44 07/08/2012 08:09:01 50.34, -90.82 176.70 35
3 07/08/2012 09:47:19 49.90,-113.16 07/08/2012 09:50:28 50.50,-116.12 221.12 189
4 07/10/2012 19:06:36 49.99, -92.60 07/10/2012 18:59:18 49.67, -94.34 129.63 438
5 07/10/2012 20:45:29 49.98,-117.32 07/10/2012 20:40:46 49.56,-119.67 174.91 283
6 07/16/2012 07:19:37 47.72, -76.97 07/16/2012 07:18:59 48.10, -79.13 166.27 38
7 07/16/2012 08:57:53
